KF4PPJ Weather Reports


time (UTC)temp
C
wind
direction
speed
KPH
gust
KPH
rain 1hr
cm
rain 24hr
cm
rain mn
cm
humidity
%
barometer
mb
20260904083516 12 152 0.0 0.0 0.00 0.00 0.00 96 1013.7
20260904083011 12 151 0.0 0.0 0.00 0.00 0.00 96 1013.7
20260904082506 12 145 0.0 0.0 0.00 0.00 0.00 96 1013.7
20260904082002 12 151 0.0 0.0 0.00 0.00 0.00 96 1013.6
20260904081457 12 160 0.0 0.0 0.00 0.00 0.00 96 1013.7
20260904080952 12 157 0.0 0.0 0.00 0.00 0.00 96 1013.6
20260904080448 12 149 0.0 0.0 0.00 0.00 0.00 96 1013.7
20260904075943 12 144 0.0 0.0 0.00 0.00 0.00 96 1013.7
20260904075439 12 154 0.0 0.0 0.00 0.00 0.00 96 1013.4
20260904074938 12 157 0.0 0.0 0.00 0.00 0.00 96 1013.7
20260904074434 12 155 0.0 0.0 0.00 0.00 0.00 96 1013.9
20260904073928 12 156 0.0 0.0 0.00 0.00 0.00 96 1013.8
20260904073424 12 152 0.0 0.0 0.00 0.00 0.00 96 1013.9
20260904072920 12 155 0.0 0.0 0.00 0.00 0.00 96 1013.9
20260904072415 12 154 0.0 0.0 0.00 0.00 0.00 96 1014.1
20260904071910 12 149 0.0 0.0 0.00 0.00 0.00 96 1013.9
20260904071406 12 122 0.0 0.0 0.00 0.00 0.00 96 1013.7
20260904070900 12 142 0.0 0.0 0.00 0.00 0.00 96 1014.0
20260904070359 12 145 0.0 0.0 0.13 0.00 0.00 96 1013.9
20260904065853 12 148 0.0 0.0 0.13 0.30 0.30 96 1013.9
20260904065350 12 135 0.0 0.0 0.00 0.28 0.28 96 1013.9
20260904064844 12 157 0.0 0.0 0.00 0.28 0.28 96 1013.7
20260904064340 12 149 0.0 0.0 0.00 0.28 0.28 96 1013.7
20260904063836 12 155 0.0 0.0 0.00 0.28 0.28 96 1013.8
20260904063332 12 139 0.0 0.0 0.00 0.28 0.28 96 1013.9
20260904062832 12 152 0.0 0.0 0.00 0.28 0.28 96 1013.7
20260904062328 12 138 0.0 0.0 0.00 0.28 0.28 96 1013.7
20260904061823 12 154 0.0 0.0 0.00 0.28 0.28 96 1013.8
20260904061320 12 143 0.0 0.0 0.00 0.28 0.28 96 1013.8
20260904060816 12 139 0.0 0.0 0.18 0.28 0.28 96 1013.7
20260904060312 12 156 1.6 1.6 0.18 0.28 0.28 96 1013.6
20260904055807 12 148 0.0 0.0 0.00 0.25 0.25 96 1013.8
20260904055306 12 151 0.0 0.0 0.00 0.25 0.25 96 1013.5
20260904054756 12 153 0.0 0.0 0.00 0.25 0.25 96 1013.6
20260904054253 12 153 0.0 0.0 0.00 0.25 0.25 96 1013.6
20260904053748 12 153 0.0 0.0 0.00 0.25 0.25 96 1013.7
20260904053242 12 152 0.0 0.0 0.00 0.25 0.25 96 1013.4
20260904052738 12 151 0.0 0.0 0.00 0.25 0.25 96 1013.5
20260904052234 12 147 0.0 0.0 0.00 0.25 0.25 96 1013.4
20260904051731 13 152 0.0 0.0 0.00 0.25 0.25 95 1013.6
20260904051225 13 146 0.0 0.0 0.00 0.25 0.25 95 1013.8
20260904050720 13 145 0.0 0.0 0.00 0.25 0.25 95 1013.6
20260904050217 13 155 0.0 0.0 0.00 0.25 0.25 95 1013.8
20260904045716 13 153 0.0 0.0 0.00 0.25 0.25 95 1013.5
20260904045211 13 137 0.0 1.6 0.00 0.25 0.25 95 1013.5
20260904044706 13 154 0.0 0.0 0.00 0.25 0.25 95 1013.6
20260904044203 13 140 0.0 1.6 0.00 0.25 0.25 95 1013.8
20260904043659 13 152 0.0 0.0 0.00 0.25 0.25 95 1013.6
20260904043154 13 140 0.0 1.6 0.00 0.25 0.25 95 1013.8
20260904042650 13 146 0.0 0.0 0.00 0.25 0.25 95 1013.7
20260904042146 13 144 0.0 0.0 0.00 0.25 0.25 95 1013.6
20260904041641 13 149 0.0 0.0 0.00 0.25 0.25 95 1013.7
20260904041137 13 149 0.0 0.0 0.00 0.25 0.25 95 1013.6
20260904040633 13 151 0.0 0.0 0.00 0.25 0.25 95 1013.6
20260904040129 13 145 0.0 0.0 0.00 0.25 0.25 95 1013.8
20260904035625 13 145 0.0 0.0 0.00 0.25 0.25 94 1013.5
20260904035124 13 145 0.0 0.0 0.00 0.25 0.25 94 1013.6
20260904034619 13 145 0.0 0.0 0.00 0.25 0.25 94 1013.7
20260904034114 13 145 0.0 0.0 0.00 0.25 0.25 94 1013.6
20260904033610 13 145 0.0 0.0 0.00 0.25 0.25 94 1013.2
20260904033108 13 141 0.0 0.0 0.00 0.25 0.25 94 1013.2
20260904032608 13 148 0.0 0.0 0.00 0.25 0.25 93 1013.2
20260904032106 13 148 0.0 0.0 0.00 0.25 0.25 93 1013.2
20260904031606 13 148 0.0 0.0 0.00 0.25 0.25 93 1013.1
20260904031102 13 152 0.0 0.0 0.00 0.25 0.25 93 1013.2
20260904030558 13 152 0.0 0.0 0.00 0.25 0.25 93 1013.2
20260904030053 13 152 0.0 0.0 0.00 0.25 0.25 92 1013.0
20260904025548 13 152 0.0 0.0 0.00 0.25 0.25 92 1013.0
20260904025043 14 154 0.0 0.0 0.00 0.25 0.25 92 1012.9
20260904024539 14 153 0.0 0.0 0.00 0.25 0.25 92 1013.0
20260904024035 14 142 0.0 0.0 0.00 0.25 0.25 91 1013.0
20260904023531 14 159 0.0 0.0 0.00 0.25 0.25 91 1013.2
20260904023027 14 157 0.0 0.0 0.13 0.25 0.25 90 1013.0
20260904022526 14 157 0.0 0.0 0.13 0.25 0.25 90 1013.0
20260904022024 14 144 0.0 1.6 0.00 0.23 0.23 89 1013.0
20260904021519 15 139 0.0 0.0 0.00 0.23 0.23 89 1012.9
20260904021014 15 159 0.0 0.0 0.00 0.23 0.23 88 1012.9
20260904020514 15 154 0.0 0.0 0.00 0.23 0.23 87 1013.0
20260904020009 15 162 0.0 0.0 0.00 0.23 0.23 86 1012.9
20260904015503 15 149 0.0 3.2 0.18 0.23 0.23 85 1012.8
20260904015002 15 150 0.0 0.0 0.00 0.20 0.20 83 1012.7
20260904014456 15 130 0.0 0.0 0.00 0.20 0.20 82 1012.8
20260904013953 15 157 0.0 0.0 0.00 0.20 0.20 82 1012.8
20260904013448 16 86 3.2 8.0 0.00 0.20 0.20 80 1012.7
20260904012945 16 136 0.0 0.0 0.00 0.20 0.20 78 1012.7
20260904012444 17 143 0.0 0.0 0.00 0.20 0.20 72 1013.1
20260904011938 17 162 0.0 3.2 0.00 0.20 0.20 69 1012.9
20260904011433 17 178 3.2 3.2 0.00 0.20 0.20 66 1012.9
20260904010929 17 197 3.2 3.2 0.00 0.20 0.20 65 1012.8
20260904010425 18 183 3.2 8.0 0.00 0.20 0.20 63 1012.6
20260904005920 18 203 4.8 8.0 0.00 0.20 0.20 62 1012.8
20260904005416 18 215 3.2 4.8 0.00 0.20 0.20 62 1012.6
20260904004915 18 227 6.4 11.3 0.00 0.20 0.20 61 1012.6
20260904004412 19 175 6.4 8.0 0.00 0.20 0.20 60 1012.7
20260904003912 18 164 8.0 14.5 0.00 0.20 0.20 62 1012.4
20260904003403 18 191 1.6 4.8 0.00 0.20 0.20 65 1012.6
20260904002903 20 226 11.3 12.9 0.00 0.20 0.20 61 1012.3
20260904002400 20 188 1.6 8.0 0.00 0.20 0.20 60 1012.3
20260904001858 20 177 1.6 4.8 0.00 0.20 0.20 58 1012.5
20260904001354 19 248 4.8 8.0 0.00 0.20 0.20 60 1012.5
20260904000849 19 209 11.3 14.5 0.00 0.20 0.20 57 1012.3
20260904000348 20 174 9.7 12.9 0.00 0.20 0.20 53 1012.5
20260903235848 21 151 4.8 4.8 0.00 0.20 0.20 52 1012.4
20260903235345 20 199 3.2 4.8 0.00 0.20 0.20 53 1012.4
20260903234844 20 184 3.2 8.0 0.00 0.20 0.20 51 1012.3
20260903234340 20 160 3.2 8.0 0.00 0.20 0.20 51 1012.3
20260903233836 20 158 4.8 8.0 0.00 0.20 0.20 53 1012.2
20260903233332 20 154 9.7 12.9 0.00 0.20 0.20 52 1012.3
20260903232831 20 184 4.8 9.7 0.00 0.20 0.20 51 1012.3
20260903232327 21 195 4.8 8.0 0.00 0.20 0.20 52 1012.2
20260903231826 20 206 6.4 8.0 0.00 0.20 0.20 51 1012.4
20260903231321 20 199 8.0 14.5 0.00 0.20 0.20 52 1012.0
20260903230817 21 204 8.0 12.9 0.00 0.20 0.20 51 1012.2
20260903230312 20 145 4.8 4.8 0.00 0.20 0.20 53 1012.3
20260903225808 20 59 1.6 9.7 0.00 0.20 0.20 52 1012.5
20260903225306 20 214 4.8 8.0 0.00 0.20 0.20 55 1012.3
20260903224801 20 51 6.4 9.7 0.00 0.20 0.20 54 1012.2
20260903224256 20 160 0.0 3.2 0.00 0.20 0.20 56 1012.3
20260903223751 19 161 0.0 3.2 0.00 0.20 0.20 57 1012.4
20260903223250 19 242 4.8 9.7 0.00 0.20 0.20 56 1012.7
20260903222745 19 157 1.6 4.8 0.00 0.20 0.20 59 1012.5
20260903222244 18 191 6.4 8.0 0.00 0.20 0.20 59 1012.5
20260903221739 19 191 3.2 4.8 0.00 0.20 0.20 57 1012.7
20260903221238 19 190 4.8 8.0 0.00 0.20 0.20 56 1012.7
20260903220736 19 198 4.8 4.8 0.00 0.20 0.20 59 1012.5
20260903220231 19 187 4.8 4.8 0.00 0.20 0.20 57 1012.5
20260903215730 18 210 1.6 4.8 0.00 0.20 0.20 62 1012.7
20260903215226 18 176 3.2 4.8 0.00 0.20 0.20 60 1012.7
20260903214723 18 224 6.4 8.0 0.00 0.20 0.20 61 1012.6
20260903214220 18 196 6.4 9.7 0.00 0.20 0.20 61 1012.6
20260903213714 18 140 0.0 1.6 0.00 0.20 0.20 63 1012.7
20260903213210 18 192 4.8 4.8 0.00 0.20 0.20 64 1012.6
20260903212706 18 173 3.2 4.8 0.00 0.20 0.20 63 1012.7
20260903212203 17 170 4.8 4.8 0.00 0.20 0.20 65 1012.6
20260903211701 17 194 3.2 3.2 0.00 0.20 0.20 66 1012.6
20260903211158 17 211 3.2 8.0 0.00 0.20 0.20 66 1012.8
20260903210654 17 211 8.0 9.7 0.00 0.20 0.20 65 1012.7
20260903210149 17 208 4.8 11.3 0.00 0.20 0.20 65 1012.5
20260903205649 17 256 4.8 9.7 0.00 0.20 0.20 64 1012.4
20260903205147 17 236 4.8 8.0 0.00 0.20 0.20 64 1012.4
20260903204644 17 205 8.0 12.9 0.00 0.20 0.20 64 1012.5
20260903204140 17 213 6.4 8.0 0.00 0.20 0.20 65 1012.3
20260903203635 17 241 4.8 9.7 0.00 0.20 0.20 65 1012.6
20260903203130 17 209 3.2 9.7 0.00 0.20 0.20 65 1012.7
20260903202624 17 209 4.8 8.0 0.00 0.20 0.20 67 1012.5
20260903202120 18 206 4.8 9.7 0.00 0.20 0.20 64 1012.5
20260903201614 18 121 6.4 12.9 0.00 0.20 0.20 65 1012.3
20260903201114 17 260 4.8 8.0 0.00 0.20 0.20 66 1012.5
20260903200609 17 143 1.6 1.6 0.00 0.20 0.20 68 1012.5
20260903200104 17 203 6.4 9.7 0.00 0.20 0.20 68 1012.4
20260903195600 17 168 6.4 8.0 0.00 0.20 0.20 69 1012.6
20260903195056 16 182 3.2 4.8 0.00 0.20 0.20 70 1012.5
20260903194551 16 201 4.8 9.7 0.00 0.20 0.20 69 1012.5
20260903194045 16 154 4.8 9.7 0.00 0.20 0.20 69 1012.6
20260903193536 16 139 1.6 8.0 0.00 0.20 0.20 69 1012.6
20260903193031 16 168 4.8 4.8 0.00 0.20 0.20 68 1012.6
20260903192528 16 225 3.2 4.8 0.00 0.20 0.20 68 1012.6
20260903192028 16 168 1.6 3.2 0.00 0.20 0.20 68 1012.6
20260903191524 17 215 4.8 8.0 0.00 0.20 0.20 67 1012.6
20260903191019 17 214 4.8 4.8 0.00 0.20 0.20 67 1012.4
20260903190513 17 209 3.2 12.9 0.00 0.20 0.20 67 1012.5
20260903190012 16 168 1.6 8.0 0.00 0.20 0.20 70 1012.5
20260903185508 16 168 1.6 8.0 0.00 0.20 0.20 70 1012.5
20260903185003 16 157 4.8 4.8 0.00 0.20 0.20 71 1012.7
20260903184459 16 181 1.6 4.8 0.00 0.20 0.20 71 1012.6
20260903183953 16 202 3.2 4.8 0.00 0.20 0.20 71 1012.7
20260903183448 16 196 1.6 1.6 0.00 0.20 0.20 72 1012.4
20260903182948 16 204 1.6 8.0 0.00 0.20 0.20 70 1012.4
20260903182447 16 199 4.8 9.7 0.00 0.20 0.20 69 1012.5
20260903181942 16 173 3.2 4.8 0.00 0.20 0.20 70 1012.4
20260903181436 16 203 4.8 8.0 0.00 0.20 0.20 71 1012.3
20260903180936 16 237 8.0 14.5 0.00 0.20 0.20 71 1012.4
20260903180430 16 207 4.8 4.8 0.00 0.20 0.20 72 1012.5
20260903175930 16 188 4.8 8.0 0.00 0.20 0.20 73 1012.3
20260903175425 16 159 0.0 4.8 0.00 0.20 0.20 75 1012.4
20260903174918 16 143 0.0 3.2 0.00 0.20 0.20 74 1012.4
20260903174414 16 171 3.2 3.2 0.00 0.20 0.20 75 1012.2
20260903173908 16 172 1.6 8.0 0.00 0.20 0.20 75 1012.2
20260903173403 16 127 8.0 9.7 0.00 0.20 0.20 75 1012.1
20260903172859 16 217 6.4 8.0 0.00 0.20 0.20 75 1012.3
20260903172354 16 186 4.8 9.7 0.00 0.20 0.20 75 1012.2
20260903171849 16 205 6.4 14.5 0.00 0.20 0.20 75 1012.1
20260903171344 16 206 6.4 9.7 0.00 0.20 0.20 76 1012.1
20260903170843 16 74 8.0 14.5 0.00 0.20 0.20 77 1011.9
20260903170338 15 177 6.4 9.7 0.00 0.20 0.20 79 1012.1
20260903165837 15 201 3.2 8.0 0.00 0.20 0.20 81 1012.1
20260903165336 15 167 0.0 3.2 0.00 0.20 0.20 85 1012.1
20260903164831 14 112 0.0 1.6 0.00 0.20 0.20 87 1011.8
20260903164327 13 143 0.0 1.6 0.00 0.20 0.20 87 1012.0
20260903163826 13 149 0.0 3.2 0.00 0.20 0.20 86 1012.1
20260903163323 13 133 3.2 3.2 0.00 0.20 0.20 86 1012.3
20260903162818 13 140 0.0 0.0 0.00 0.20 0.20 86 1012.3
20260903162315 13 98 6.4 9.7 0.00 0.20 0.20 86 1012.2
20260903161810 13 87 3.2 3.2 0.00 0.20 0.20 89 1012.1
20260903161306 13 150 1.6 1.6 0.00 0.20 0.20 89 1011.9
20260903160801 13 151 0.0 1.6 0.00 0.20 0.20 89 1012.0
20260903160300 13 88 1.6 4.8 0.00 0.20 0.20 88 1012.1
20260903155759 13 145 0.0 1.6 0.00 0.20 0.20 88 1012.4
20260903155254 13 127 0.0 4.8 0.00 0.20 0.20 86 1012.1
20260903154749 13 131 1.6 3.2 0.00 0.20 0.20 87 1012.3
20260903154245 14 192 4.8 4.8 0.00 0.20 0.20 86 1012.0
20260903153741 14 196 4.8 4.8 0.00 0.20 0.20 86 1012.0
20260903153236 15 133 3.2 4.8 0.00 0.20 0.20 87 1012.0
20260903152733 14 127 1.6 3.2 0.00 0.20 0.20 90 1012.0
20260903152229 13 80 0.0 4.8 0.00 0.20 0.20 91 1012.0
20260903151728 13 126 4.8 9.7 0.00 0.20 0.20 92 1012.0
20260903151224 13 162 1.6 1.6 0.00 0.20 0.20 95 1012.2
20260903150718 12 108 3.2 3.2 0.00 0.20 0.20 95 1011.9
20260903150213 12 148 0.0 0.0 0.00 0.20 0.20 95 1012.0
20260903145708 12 155 0.0 1.6 0.00 0.20 0.20 95 1011.9
20260903145203 12 159 1.6 1.6 0.00 0.20 0.20 96 1012.0
20260903144701 12 142 0.0 4.8 0.00 0.20 0.20 96 1011.9
20260903144157 11 155 0.0 0.0 0.00 0.20 0.20 96 1011.8
20260903143654 11 158 0.0 0.0 0.00 0.20 0.20 96 1011.9
20260903143149 11 154 0.0 0.0 0.00 0.20 0.20 96 1011.8
20260903142644 11 154 0.0 0.0 0.00 0.20 0.20 96 1011.7
20260903142141 11 151 0.0 0.0 0.00 0.20 0.20 96 1011.9
20260903141637 11 154 0.0 0.0 0.13 0.20 0.20 96 1011.8
20260903141131 11 172 0.0 0.0 0.13 0.20 0.20 96 1011.8
20260903140628 11 152 0.0 0.0 0.00 0.18 0.18 96 1011.7
20260903140122 11 170 0.0 0.0 0.00 0.18 0.18 96 1011.7
20260903135618 11 149 0.0 0.0 0.00 0.18 0.18 96 1011.8
20260903135118 11 179 0.0 0.0 0.00 0.18 0.18 96 1011.5
20260903134617 11 161 0.0 0.0 0.00 0.18 0.18 95 1011.7
20260903134113 11 147 0.0 0.0 0.00 0.18 0.18 95 1011.4
20260903133610 11 175 1.6 1.6 0.00 0.18 0.18 95 1011.5
20260903133107 11 150 0.0 1.6 0.00 0.18 0.18 95 1011.6
20260903132601 11 146 1.6 1.6 0.00 0.18 0.18 95 1011.6
20260903132056 11 150 0.0 0.0 0.00 0.18 0.18 95 1011.3
20260903131556 11 159 0.0 0.0 0.18 0.18 0.18 95 1011.4
20260903131049 11 143 1.6 1.6 0.18 0.18 0.18 95 1011.4
20260903130543 11 152 0.0 0.0 0.00 0.15 0.15 95 1011.5
20260903130038 11 157 0.0 0.0 0.13 0.15 0.15 95 1011.3
20260903125537 11 142 0.0 1.6 0.00 0.13 0.13 94 1011.3
20260903125032 11 154 0.0 0.0 0.18 0.13 0.13 94 1011.5
20260903124532 11 155 0.0 1.6 0.18 0.13 0.13 94 1011.4
20260903124027 11 136 1.6 1.6 0.00 0.10 0.10 94 1011.4
20260903123526 11 153 0.0 0.0 0.00 0.10 0.10 94 1011.4
20260903123025 11 154 0.0 0.0 0.00 0.10 0.10 93 1011.2
20260903122519 11 148 0.0 0.0 0.13 0.10 0.10 93 1011.4
20260903122019 11 148 0.0 0.0 0.13 0.10 0.10 92 1011.4
20260903121514 11 146 0.0 1.6 0.18 0.08 0.08 92 1011.2
20260903121010 11 136 1.6 1.6 0.30 0.08 0.08 91 1011.2
20260903120509 11 125 0.0 1.6 0.30 0.05 0.05 91 1011.3
20260903120009 11 144 0.0 1.6 0.18 0.03 0.03 91 1011.2
20260903115508 11 191 3.2 3.2 0.00 0.00 0.00 90 1011.1
20260903115007 11 141 1.6 1.6 0.00 0.00 0.00 90 1011.1
20260903114457 11 175 3.2 3.2 0.00 0.00 0.00 90 1010.7
20260903113953 12 157 1.6 1.6 0.00 0.00 0.00 89 1011.0
20260903113449 12 140 1.6 3.2 0.00 0.00 0.00 89 1010.8
20260903112944 12 150 0.0 3.2 0.00 0.00 0.00 89 1010.8
20260903112440 12 136 0.0 0.0 0.00 0.00 0.00 90 1010.8
20260903111939 12 149 0.0 3.2 0.00 0.00 0.00 90 1010.7
20260903111439 11 144 0.0 1.6 0.00 0.00 0.00 92 1010.7
20260903110935 11 159 0.0 1.6 0.00 0.00 0.00 92 1010.7
20260903110430 11 159 1.6 1.6 0.00 0.00 0.00 93 1010.8
20260903105926 11 149 0.0 1.6 0.00 0.00 0.00 93 1010.7
20260903105421 11 156 0.0 0.0 0.00 0.00 0.00 92 1010.8
20260903104920 11 145 0.0 0.0 0.00 0.00 0.00 93 1010.7
20260903104420 11 144 1.6 1.6 0.00 0.00 0.00 93 1010.5
20260903103917 11 158 0.0 0.0 0.00 0.00 0.00 93 1010.8
20260903103413 11 146 0.0 0.0 0.00 0.00 0.00 93 1010.8
20260903102908 11 142 0.0 0.0 0.00 0.00 0.00 93 1011.1
20260903102402 11 154 0.0 0.0 0.00 0.00 0.00 93 1010.6
20260903101857 11 116 0.0 0.0 0.00 0.00 0.00 93 1010.8
20260903101357 11 145 0.0 0.0 0.00 0.00 0.00 93 1010.9
20260903100852 11 158 0.0 0.0 0.00 0.00 0.00 93 1010.6
20260903100347 11 163 0.0 0.0 0.00 0.00 0.00 94 1010.8
20260903095838 12 185 0.0 0.0 0.00 0.00 0.00 93 1010.8
20260903095338 11 153 0.0 0.0 0.00 0.00 0.00 94 1010.8
20260903094834 11 156 0.0 0.0 0.00 0.00 0.00 94 1010.5
20260903094328 11 149 0.0 0.0 0.00 0.00 0.00 94 1010.7
20260903093824 12 158 0.0 0.0 0.00 0.00 0.00 93 1010.9
20260903093319 12 144 0.0 0.0 0.00 0.00 0.00 93 1010.8
20260903092814 12 146 0.0 0.0 0.00 0.00 0.00 93 1010.7
20260903092309 12 152 0.0 0.0 0.00 0.00 0.00 93 1010.9
20260903091807 12 154 0.0 0.0 0.00 0.00 0.00 92 1010.8
20260903091302 12 150 0.0 0.0 0.00 0.00 0.00 92 1010.6
20260903090758 12 135 0.0 0.0 0.00 0.00 0.00 92 1010.6
20260903090257 12 166 0.0 0.0 0.00 0.00 0.00 92 1010.7
20260903085755 12 168 0.0 0.0 0.00 0.00 0.00 93 1010.7
20260903085249 12 115 1.6 3.2 0.00 0.00 0.00 93 1010.7
20260903084748 12 151 0.0 0.0 0.00 0.00 0.00 93 1010.6
20260903084237 12 194 1.6 3.2 0.00 0.00 0.00 94 1010.7